ELEKTRO-L 2 (41105 NORAD) Tracking and Keplerian Element Data

This shows tracking and keplerian element data for the satellite.

Feedback or suggestion? Click here.




ElementValue
Catalog41105
NameELEKTRO-L 2
Epoch Orbit3350
Epoch Day34.39497356
Epoch Year2025
RAAN76.6727
Inclination5.4305
Eccentricity0.0003811
Argument of Perigee211.5229
Mean Anonmoly333.2999
Mean Motion1.00270097
Decay Rate-1.14E-06
L11 41105U 15074A 25034.39497356 -.00000114 00000+0 00000+0 0 9993
L22 41105 5.4305 76.6727 0003811 211.5229 333.2999 1.00270097 33505



Live tracking and technical data element details for ELEKTRO-L 2 (NORAD 41105). ELEKTRO-L 2 can be tracked NOW for your location showing map with azimuth and elevation plus other details from your city location.







IsCatalogInMostPopularTable: catalog: 41105, numindb: 742
Update: records affected: 1



GetName: 41105 ELEKTRO-L 2

Hit Count: updated at: Wed, 18 Jun 2025 06:31:19 GMT